Flag for Canada Weather past 2 weeks in Coral Harbour, Nunavut, Canada

-17 °F

Partly sunny.

Feels Like: -39 °F
Forecast: N/A
Wind: 13 mph from North

Location: Coral Harbour

Current Time: Nov 25, 2015 at 4:09:58 PM

Latest Report: Nov 25, 2015 at 3:00 PM

Visibility: 15 mi

Pressure: 30.04 "Hg

Humidity: 69%

Dew point: -24 °F

Location of Coral HarbourLocation

Historic Weather in Coral Harbour — Graph


Coral Harbour temperature yesterday

Maximum temperature yesterday: 9 °F (at 10:00 AM)
Minimum temperature yesterday: -26 °F (at 10:00 PM)
Average temperature yesterday: -5 °F

Past Weeks' High & Low Weather Summary

High28 °F (Nov 18, 1:00 AM)100% (Nov 12, 3:00 PM)30.31 "Hg (Nov 12, 3:00 PM)
Low-26 °F (Nov 24, 10:00 PM)68% (Nov 22, 1:00 PM)29.01 "Hg (Nov 18, 12:00 PM)
Average8 °F84%29.83 "Hg
* Reported Nov 10 2:00 PM — Nov 25 2:00 PM, Coral Harbour, Weather by CustomWeather, © 2015

Note: Actual official high and low records may vary slightly from our data, if they occured in-between our weather recording intervals... More about our weather records


Coral Harbour weather history for previous 24 hours

Time TempWeatherWind HumidityBarometerVisibility
2:00 PM
Wed, Nov 25
-20 °FPartly sunny.12 mph75%30.04 "Hg15 mi
1:00 PM-18 °FScattered clouds.7 mph69%30.05 "Hg15 mi
12:00 PM-18 °FPartly sunny.7 mph69%30.06 "Hg15 mi
11:00 AM-17 °FPartly sunny.5 mph69%30.06 "Hg15 mi
10:00 AM-20 °FPassing clouds.7 mph75%30.06 "Hg15 mi
9:00 AM-22 °FPassing clouds.8 mph75%30.06 "Hg15 mi
8:00 AM-22 °FPassing clouds.7 mph75%30.06 "Hg15 mi
7:00 AM-22 °FClear.7 mph75%30.06 "Hg15 mi
6:00 AM-22 °FPassing clouds.9 mph68%30.08 "Hg15 mi
5:00 AM-26 °FPassing clouds.10 mph75%30.07 "Hg15 mi
4:00 AM-22 °FPassing clouds.10 mph75%30.06 "Hg15 mi
3:00 AM-22 °FPassing clouds.7 mph68%30.07 "Hg15 mi
2:00 AM-18 °FPassing clouds.7 mph83%30.06 "Hg15 mi
1:00 AM-24 °FPassing clouds.10 mph75%30.07 "Hg15 mi
12:00 AM-22 °FPassing clouds.10 mph75%30.07 "Hg15 mi
11:00 PM
Tue, Nov 24
-20 °FPassing clouds.9 mph68%30.07 "Hg15 mi
10:00 PM-26 °FPassing clouds.10 mph75%30.08 "Hg15 mi
9:00 PM-22 °FPassing clouds.12 mph75%30.09 "Hg15 mi
8:00 PM-20 °FPassing clouds.13 mph75%30.08 "Hg15 mi
7:00 PM-17 °FLow level haze.17 mph76%30.07 "Hg15 mi
6:00 PM-18 °FPassing clouds.14 mph75%30.08 "Hg15 mi
5:00 PM-15 °FPassing clouds.16 mph76%30.07 "Hg15 mi
4:00 PM-13 °FPassing clouds.16 mph76%30.06 "Hg15 mi
Weather by CustomWeather, © 2015

See weather overviewHow to use our weather pages